Beatrice, NE

3:47 PM CST on December 07, 2019 (GMT -0600)
Beatrice Municipal

Weather History for KBIE - November, 2019

Change the Weather History Date:

Sunday, November 17, 2019

  Actual Average Record
Temperature  
Mean Temperature 44 °F -  
Max Temperature 55 °F 57 °F 72 °F (1953)
Min Temperature 32 °F 33 °F 2 °F (1955)
Degree Days  
Heating Degree Days 22    
Moisture  
Dew Point 34 °F    
Average Humidity 69    
Maximum Humidity 89    
Minimum Humidity 44    
Precipitation  
Precipitation 0.00 in - - ()
Sea Level Pressure  
Sea Level Pressure 29.99 in    
Wind  
Wind Speed 8 mph ()    
Max Wind Speed 18 mph    
Max Gust Speed 22 mph    
Visibility 10.0 miles    
Events      
Averages and records for this station are not official NWS values.
T = Trace of Precipitation, MM = Missing Value Source: Averaged Metar Reports

Daily Weather History Graph

Daily Weather History Graph

Search for Another Location

Airport or City:

Astronomy

Nov. 17, 2019 Rise Set
Actual Time 7:14 AM CST 5:08 PM CST
Civil Twilight 6:45 AM CST 5:37 PM CST
Nautical Twilight 6:12 AM CST 6:10 PM CST
Astronomical Twilight 5:40 AM CST 6:43 PM CST
Moon 9:46 PM CST (11/17) 12:01 PM CST (11/17)
Length of Visible Light 10h 52m
Length of Day
9h 53m
Waning Gibbous, 73% of the Moon is Illuminated
Nov 17
Waning Gibbous
Nov 19
Last Quarter
Nov 26
New
Dec 4
First Quarter
Dec 11
Full

Hourly Weather History & Observations

Time (CST) Temp. Windchill Dew Point Humidity Pressure Visibility Wind Dir Wind Speed Gust Speed Precip Events Conditions
12:15 AM 47.5 °F - 33.8 °F 59% 29.98 in 10.0 mi West 4.6 mph - N/A   Scattered Clouds
12:35 AM 45.7 °F 41.5 °F 33.8 °F 63% 29.99 in 10.0 mi West 8.1 mph - N/A   Clear
12:55 AM 45.3 °F 40.1 °F 33.8 °F 64% 29.99 in 10.0 mi NW 10.4 mph - N/A   Clear
1:15 AM 43.7 °F 39.1 °F 34.7 °F 71% 29.99 in 10.0 mi NW 8.1 mph - N/A   Clear
1:35 AM 42.8 °F 38.6 °F 35.6 °F 76% 30.00 in 10.0 mi NNW 6.9 mph - N/A   Clear
1:55 AM 42.8 °F 38.0 °F 36.1 °F 77% 29.99 in 10.0 mi NNW 8.1 mph - N/A   Clear
2:15 AM 43.9 °F 39.3 °F 36.9 °F 76% 30.00 in 10.0 mi NW 8.1 mph - N/A   Clear
2:35 AM 44.2 °F 39.2 °F 37.6 °F 77% 30.01 in 10.0 mi NW 9.2 mph - N/A   Clear
2:55 AM 43.7 °F 38.6 °F 37.4 °F 78% 30.01 in 10.0 mi NW 9.2 mph - N/A   Clear
3:15 AM 43.2 °F 39.0 °F 37.4 °F 80% 30.02 in 10.0 mi NW 6.9 mph - N/A   Clear
3:35 AM 42.4 °F 38.1 °F 36.9 °F 81% 30.02 in 10.0 mi NW 6.9 mph - N/A   Scattered Clouds
3:55 AM 42.8 °F 38.6 °F 37.4 °F 81% 30.02 in 10.0 mi NW 6.9 mph - N/A   Overcast
4:15 AM 42.3 °F 37.3 °F 37.4 °F 83% 30.02 in 10.0 mi WNW 8.1 mph - N/A   Mostly Cloudy
4:35 AM 42.1 °F 37.1 °F 37.4 °F 83% 30.02 in 10.0 mi NW 8.1 mph - N/A   Mostly Cloudy
4:55 AM 42.3 °F 37.3 °F 37.8 °F 84% 30.03 in 10.0 mi WNW 8.1 mph - N/A   Mostly Cloudy
5:15 AM 43.3 °F 37.7 °F 38.3 °F 82% 30.03 in 10.0 mi NW 10.4 mph - N/A   Scattered Clouds
5:35 AM 43.0 °F 37.7 °F 37.8 °F 82% 30.03 in 10.0 mi NW 9.2 mph - N/A   Scattered Clouds
5:55 AM 42.6 °F 37.2 °F 37.4 °F 82% 30.03 in 10.0 mi NW 9.2 mph - N/A   Scattered Clouds
6:15 AM 41.0 °F 35.8 °F 36.7 °F 85% 30.03 in 10.0 mi NW 8.1 mph - N/A   Clear
6:35 AM 40.3 °F 34.9 °F 36.5 °F 86% 30.03 in 10.0 mi NW 8.1 mph - N/A   Clear
6:55 AM 40.6 °F 34.8 °F 36.5 °F 85% 30.03 in 10.0 mi NW 9.2 mph - N/A   Clear
7:15 AM 39.9 °F 34.5 °F 36.0 °F 86% 30.03 in 10.0 mi WNW 8.1 mph - N/A   Mostly Cloudy
7:35 AM 37.8 °F 31.8 °F 34.9 °F 89% 30.03 in 10.0 mi WNW 8.1 mph - N/A   Scattered Clouds
7:55 AM 38.7 °F 32.9 °F 35.6 °F 89% 30.04 in 10.0 mi WNW 8.1 mph - N/A   Clear
8:15 AM 39.9 °F 33.9 °F 36.1 °F 86% 30.05 in 10.0 mi WNW 9.2 mph - N/A   Clear
8:55 AM 43.2 °F 36.6 °F 36.5 °F 77% 30.05 in 10.0 mi NW 12.7 mph - N/A   Clear
9:15 AM 44.6 °F 37.8 °F 36.7 °F 74% 30.05 in 10.0 mi NW 15.0 mph - N/A   Clear
9:35 AM 46.2 °F 39.5 °F 37.0 °F 70% 30.05 in 10.0 mi NW 16.1 mph - N/A   Clear
9:55 AM 47.5 °F - 36.9 °F 67% 30.05 in 10.0 mi NW 13.8 mph - N/A   Clear
10:15 AM 48.2 °F - 36.7 °F 64% 30.06 in 10.0 mi NW 16.1 mph - N/A   Scattered Clouds
10:35 AM 50.0 °F - 37.2 °F 62% 30.06 in 10.0 mi NW 12.7 mph - N/A   Overcast
10:55 AM 49.3 °F - 36.5 °F 61% 30.05 in 10.0 mi NW 11.5 mph - N/A   Mostly Cloudy
11:15 AM 52.0 °F - 35.6 °F 54% 30.04 in 10.0 mi NW 12.7 mph 16.1 mph N/A   Scattered Clouds
11:35 AM 52.3 °F - 35.1 °F 52% 30.04 in 10.0 mi NNW 13.8 mph - N/A   Clear
11:55 AM 52.7 °F - 34.5 °F 50% 30.03 in 10.0 mi NW 13.8 mph 17.3 mph N/A   Clear
12:15 PM 53.8 °F - 34.2 °F 47% 30.02 in 10.0 mi WNW 13.8 mph 20.7 mph N/A   Scattered Clouds
12:35 PM 54.0 °F - 33.6 °F 46% 30.01 in 10.0 mi NW 18.4 mph - N/A   Scattered Clouds
12:55 PM 54.7 °F - 33.3 °F 44% 30.00 in 10.0 mi NW 13.8 mph 19.6 mph N/A   Clear
1:15 PM 54.9 °F - 33.1 °F 44% 30.00 in 10.0 mi NNW 15.0 mph 21.9 mph N/A   Clear
1:35 PM 54.9 °F - 33.1 °F 44% 29.99 in 10.0 mi NW 15.0 mph 20.7 mph N/A   Clear
1:55 PM 54.7 °F - 33.3 °F 44% 29.99 in 10.0 mi NW 15.0 mph 19.6 mph N/A   Clear
2:15 PM 55.2 °F - 33.4 °F 44% 29.98 in 10.0 mi NW 16.1 mph 19.6 mph N/A   Clear
2:35 PM 55.6 °F - 34.3 °F 45% 29.97 in 10.0 mi WNW 12.7 mph 16.1 mph N/A   Clear
2:55 PM 55.0 °F - 34.5 °F 46% 29.97 in 10.0 mi NW 13.8 mph - N/A   Clear
3:15 PM 55.4 °F - 34.5 °F 45% 29.97 in 10.0 mi NW 13.8 mph - N/A   Clear
3:35 PM 55.0 °F - 34.2 °F 45% 29.97 in 10.0 mi NW 11.5 mph - N/A   Clear
3:55 PM 54.7 °F - 34.5 °F 47% 29.97 in 10.0 mi NW 12.7 mph - N/A   Clear
4:15 PM 54.0 °F - 34.2 °F 47% 29.97 in 10.0 mi NW 10.4 mph - N/A   Clear
4:35 PM 52.7 °F - 34.0 °F 49% 29.97 in 10.0 mi NW 8.1 mph - N/A   Clear
4:55 PM 48.6 °F - 33.1 °F 55% 29.96 in 10.0 mi NW 6.9 mph - N/A   Clear
5:15 PM 43.7 °F 40.3 °F 32.0 °F 63% 29.96 in 10.0 mi NW 5.8 mph - N/A   Clear
5:35 PM 41.0 °F 37.1 °F 30.7 °F 67% 29.96 in 10.0 mi WNW 5.8 mph - N/A   Clear
5:55 PM 39.6 °F 37.4 °F 30.6 °F 70% 29.97 in 10.0 mi West 3.5 mph - N/A   Clear
6:15 PM 40.8 °F 37.8 °F 30.7 °F 67% 29.96 in 10.0 mi West 4.6 mph - N/A   Clear
6:55 PM 39.2 °F - 30.2 °F 70% 29.95 in 10.0 mi Calm Calm - N/A   Clear
7:15 PM 39.4 °F - 30.7 °F 71% 29.95 in 10.0 mi Calm Calm - N/A   Clear
7:35 PM 39.2 °F - 30.2 °F 70% 29.94 in 10.0 mi Calm Calm - N/A   Clear
7:55 PM 34.2 °F 31.2 °F 28.2 °F 79% 29.94 in 10.0 mi SSW 3.5 mph - N/A   Clear
8:15 PM 35.4 °F - 29.8 °F 80% 29.94 in 10.0 mi Calm Calm - N/A   Clear
8:35 PM 36.0 °F - 29.7 °F 78% 29.93 in 10.0 mi Calm Calm - N/A   Clear
8:55 PM 34.3 °F - 27.7 °F 77% 29.93 in 10.0 mi Calm Calm - N/A   Clear
9:15 PM 35.4 °F - 29.7 °F 80% 29.93 in 10.0 mi Calm Calm - N/A   Clear
9:35 PM 33.8 °F - 28.9 °F 82% 29.92 in 10.0 mi Calm Calm - N/A   Clear
9:55 PM 33.8 °F - 29.1 °F 83% 29.92 in 10.0 mi Calm Calm - N/A   Clear
10:15 PM 33.4 °F - 28.9 °F 84% 29.91 in 10.0 mi Calm Calm - N/A   Clear
10:35 PM 33.1 °F - 28.9 °F 85% 29.91 in 10.0 mi Calm Calm - N/A   Clear
10:55 PM 35.1 °F 32.2 °F 30.0 °F 82% 29.90 in 10.0 mi ESE 3.5 mph - N/A   Clear
11:15 PM 32.4 °F - 28.9 °F 87% 29.89 in 10.0 mi Calm Calm - N/A   Clear
11:35 PM 33.1 °F - 29.3 °F 86% 29.88 in 10.0 mi Calm Calm - N/A   Clear
11:55 PM 33.3 °F - 28.9 °F 84% 29.88 in 10.0 mi Calm Calm - N/A   Clear